CZ-6A DEB, 54933

Orbit data source: Space-Track

CZ-6A DEB, 54933 is space debris in SSO originally from a launch on Fri, 11 Nov 2022 UTC launched from the Taiyaun Space Center, China (TSC). Debris objects in space refer to the collection of defunct objects orbiting the Earth. Examples of debris include non-operational satellites, rocket bodies, and fragments generated from explosions, collisions, or faulty payload assembly.

Loading next visibility...
Identifier
54933, 2022-151RW
Orbit
SSO
Country
Flag of CNCN / PRC
Related business
Manufacturer
SAST
Mission
Spacecraft
Bus & Motor
Unknown
Mass
Unknown
Launch date (UTC)
2022-11-11 (3 years ago)
Launch vehicle
Unknown
Launch site
Taiyaun Space Center, China (TSC)
Object type
Payload
Rocket body
Debris
Shape & HBR
Unknown shape, 0.1 m
Radar Cross Section
Small (<0.1 m²)

Expand to show TLE details & history
Last TLE update: 1 day ago

TLE from 1 day ago
0 CZ-6A DEB
1 54933U 22151RW  26129.33257573  .00009097  00000-0  14379-2 0  9991
2 54933  99.0780 259.2617 0078284  92.1696 268.8473 14.70524417184199
Epoch: 2026-05-09T07:58Z
TLE epoch observation values (Epoch: 2026-05-09T07:58:54.543Z)
Latitude
-0.00007°
Longitude
-87.61708°
Altitude
663.905 km
Speed
7.524 km/s
True Right ascension
17h 17m 02s
True Declination
0° 00' 00"
Sunlit
Object was in full shadow at epoch
Visualization orbit readout
Latitude
Unknown
Longitude
Unknown
Altitude
Unknown
Speed
Unknown
Apparent Right ascension
Unknown
Apparent Declination
Unknown
Sunlit
N/A
Visualization observer readout
Local Sidereal Time
22:08:33
Azimuth
Unknown
Elevation
Unknown
Doppler factor
Unknown
Orbital elements
Apogee altitude
711.574 km
Perigee altitude
601.434 km
Semi-major axis
7,034.641 km
Eccentricity
0.00783
Inclination
99.078°
RAAN
259.2617°
Arg. of periapsis
92.1696°
True anomaly
267.95063°
Mean anomaly
268.8473°
Eccentric anomaly
268.39894°
Mean motion
3.67858 °/min
Orbital period
97.86 mins
BSTAR
0.0014379
Loading maneuver chart data...
Computing Atmospheric mass density...
Loading historical data...
Loading historical data...
Loading historical data...
Loading historical data...
Loading historical data...
Loading historical data...
Loading historical data...

Documentation

Showing up to 5 results
|